FW4808 Weather Reports


Display with metric or nautical units.
time (UTC)temp
F
wind
direction
speed
MPH
gust
MPH
rain 1hr
in
rain 24hr
in
rain mn
in
humidity
%
barometer
mb
20260505003503 68 171 0.0 2.0 0.00 0.00 0.00 44 1009.2
20260505003003 68 177 0.0 2.0 0.00 0.00 0.00 43 1009.2
20260505002503 69 181 0.0 2.0 0.00 0.00 0.00 43 1009.2
20260505002003 69 190 0.0 3.0 0.00 0.00 0.00 42 1009.2
20260505001718 69 187 0.0 7.0 0.00 0.00 0.00 42 1009.2
20260505001003 69 180 0.0 7.0 0.00 0.00 0.00 42 1009.1
20260505000718 69 169 0.0 4.0 0.00 0.00 0.00 41 1009.1
20260505000003 70 177 0.0 4.0 0.00 0.00 0.00 40 1009.1
20260504235503 70 175 0.0 4.0 0.00 0.00 0.00 39 1009.0
20260504235004 71 176 0.0 5.0 0.00 0.00 0.00 39 1008.9
20260504234503 71 177 0.0 5.0 0.00 0.00 0.00 38 1008.9
20260504234003 71 174 1.0 8.0 0.00 0.00 0.00 38 1008.8
20260504233504 72 177 1.0 8.0 0.00 0.00 0.00 37 1008.8
20260504233003 72 173 1.0 11.0 0.00 0.00 0.00 37 1008.8
20260504232504 72 175 1.0 11.0 0.00 0.00 0.00 36 1008.7
20260504232003 72 183 1.0 9.0 0.00 0.00 0.00 36 1008.8
20260504231503 73 185 2.0 10.0 0.00 0.00 0.00 36 1008.9
20260504231003 73 186 1.0 10.0 0.00 0.00 0.00 35 1008.9
20260504230503 73 184 1.0 8.0 0.00 0.00 0.00 36 1008.8
20260504230004 73 182 2.0 15.0 0.00 0.00 0.00 35 1008.9
20260504225503 74 178 3.0 15.0 0.00 0.00 0.00 35 1008.8
20260504225218 74 180 2.0 15.0 0.00 0.00 0.00 35 1008.9
20260504224503 74 183 1.0 7.0 0.00 0.00 0.00 35 1008.9
20260504224004 74 178 1.0 10.0 0.00 0.00 0.00 34 1008.9
20260504223503 74 178 1.0 10.0 0.00 0.00 0.00 34 1008.8
20260504223004 74 185 1.0 5.0 0.00 0.00 0.00 34 1008.9
20260504222717 74 198 1.0 6.0 0.00 0.00 0.00 34 1008.9
20260504222218 74 188 1.0 12.0 0.00 0.00 0.00 34 1008.9
20260504221503 74 181 1.0 10.0 0.00 0.00 0.00 34 1008.9
20260504221004 74 182 2.0 12.0 0.00 0.00 0.00 34 1008.9
20260504220503 74 183 2.0 12.0 0.00 0.00 0.00 34 1009.0
20260504220004 74 182 1.0 9.0 0.00 0.00 0.00 35 1009.0
20260504215503 74 180 2.0 9.0 0.00 0.00 0.00 34 1009.0
20260504215003 74 183 2.0 13.0 0.00 0.00 0.00 34 1009.0
20260504214504 74 184 2.0 13.0 0.00 0.00 0.00 34 1008.9
20260504214003 74 184 2.0 10.0 0.00 0.00 0.00 34 1008.9
20260504213503 74 182 3.0 12.0 0.00 0.00 0.00 35 1008.9
20260504213003 74 183 3.0 12.0 0.00 0.00 0.00 35 1008.9
20260504212503 74 190 2.0 12.0 0.00 0.00 0.00 33 1009.0
20260504212003 74 191 1.0 9.0 0.00 0.00 0.00 35 1009.1
20260504211503 74 184 1.0 7.0 0.00 0.00 0.00 34 1009.1
20260504211003 74 186 1.0 8.0 0.00 0.00 0.00 36 1008.9
20260504210504 74 185 2.0 8.0 0.00 0.00 0.00 35 1008.9
20260504210004 74 183 2.0 8.0 0.00 0.00 0.00 34 1009.1
20260504205503 74 193 1.0 7.0 0.00 0.00 0.00 34 1009.1
20260504205003 74 194 1.0 7.0 0.00 0.00 0.00 35 1009.2
20260504204717 74 190 1.0 9.0 0.00 0.00 0.00 35 1009.1
20260504204004 74 196 1.0 10.0 0.00 0.00 0.00 34 1009.1
20260504203503 74 196 1.0 11.0 0.00 0.00 0.00 35 1009.1
20260504203003 74 189 2.0 11.0 0.00 0.00 0.00 34 1009.2
20260504202503 74 193 1.0 11.0 0.00 0.00 0.00 34 1009.3
20260504202217 74 218 0.0 5.0 0.00 0.00 0.00 35 1009.3
20260504201504 74 192 1.0 8.0 0.00 0.00 0.00 36 1009.5
20260504201003 74 195 1.0 9.0 0.00 0.00 0.00 35 1009.5
20260504200503 74 215 1.0 9.0 0.00 0.00 0.00 35 1009.5
20260504200003 74 202 1.0 7.0 0.00 0.00 0.00 35 1009.7
20260504195503 74 193 1.0 8.0 0.00 0.00 0.00 35 1009.7
20260504195003 74 194 2.0 10.0 0.00 0.00 0.00 35 1009.8
20260504194503 73 204 2.0 10.0 0.00 0.00 0.00 35 1009.9
20260504194003 73 213 1.0 9.0 0.00 0.00 0.00 35 1010.0
20260504193503 73 185 1.0 9.0 0.00 0.00 0.00 35 1010.0
20260504193003 73 194 1.0 9.0 0.00 0.00 0.00 35 1010.1
20260504192503 73 204 1.0 8.0 0.00 0.00 0.00 35 1010.3
20260504192003 73 180 1.0 9.0 0.00 0.00 0.00 35 1010.4
20260504191503 73 173 2.0 9.0 0.00 0.00 0.00 37 1010.5
20260504191003 73 193 2.0 9.0 0.00 0.00 0.00 35 1010.5
20260504190718 73 220 1.0 8.0 0.00 0.00 0.00 34 1010.5
20260504190003 73 218 1.0 9.0 0.00 0.00 0.00 34 1010.7
20260504185718 73 209 1.0 9.0 0.00 0.00 0.00 34 1010.8
20260504185217 73 175 0.0 6.0 0.00 0.00 0.00 34 1010.7
20260504184503 73 222 1.0 12.0 0.00 0.00 0.00 34 1011.0
20260504184003 72 196 1.0 12.0 0.00 0.00 0.00 35 1011.1
20260504183503 73 183 1.0 12.0 0.00 0.00 0.00 33 1011.1
20260504183004 73 210 0.0 3.0 0.00 0.00 0.00 34 1011.2
20260504182503 74 245 1.0 7.0 0.00 0.00 0.00 33 1011.3
20260504182219 74 241 1.0 7.0 0.00 0.00 0.00 33 1011.3
20260504181718 74 211 1.0 10.0 0.00 0.00 0.00 33 1011.3
20260504181218 74 198 1.0 16.0 0.00 0.00 0.00 34 1011.4
20260504180503 74 248 1.0 10.0 0.00 0.00 0.00 33 1011.4
20260504180004 74 226 1.0 7.0 0.00 0.00 0.00 33 1011.4
20260504175717 73 207 2.0 12.0 0.00 0.00 0.00 34 1011.5
20260504175003 73 202 2.0 12.0 0.00 0.00 0.00 33 1011.5
20260504174503 73 182 1.0 11.0 0.00 0.00 0.00 34 1011.4
20260504174003 73 171 2.0 11.0 0.00 0.00 0.00 33 1011.5
20260504173503 74 177 2.0 8.0 0.00 0.00 0.00 32 1011.7
20260504173218 74 180 1.0 8.0 0.00 0.00 0.00 33 1011.8
20260504172504 75 225 0.0 5.0 0.00 0.00 0.00 33 1011.7
20260504172003 75 251 1.0 9.0 0.00 0.00 0.00 33 1011.7
20260504171503 75 254 1.0 9.0 0.00 0.00 0.00 32 1011.8
20260504171003 74 260 1.0 7.0 0.00 0.00 0.00 33 1011.9
20260504170503 74 241 1.0 7.0 0.00 0.00 0.00 33 1011.9
20260504151003 72 255 2.0 16.0 0.00 0.00 0.00 32 1013.2
20260504150504 72 261 2.0 16.0 0.00 0.00 0.00 31 1013.2
20260504141217 67 190 0.0 7.0 0.00 0.00 0.00 34 1013.3
20260504140503 66 201 1.0 7.0 0.00 0.00 0.00 36 1013.4
20260504130717 57 188 0.0 6.0 0.00 0.00 0.00 48 1013.6
20260504120218 52 191 0.0 2.0 0.00 0.00 0.00 58 1013.8
20260504110503 49 186 0.0 2.0 0.00 0.00 0.00 61 1013.8
20260504082004 47 0 0.0 0.0 0.00 0.00 0.00 55 1014.5
20260504081504 46 0 0.0 0.0 0.00 0.00 0.00 54 1014.5
20260504081004 46 0 0.0 0.0 0.00 0.00 0.00 53 1014.5
20260504080503 46 0 0.0 0.0 0.00 0.00 0.00 53 1014.5
20260504060218 44 0 0.0 0.0 0.00 0.00 0.00 59 1014.8
20260504050503 44 0 0.0 0.0 0.00 0.00 0.00 63 1015.0
20260504050003 45 0 0.0 0.0 0.00 0.00 0.00 63 1015.0
20260504045503 45 0 0.0 0.0 0.00 0.00 0.00 63 1015.0
20260504045003 45 0 0.0 0.0 0.00 0.00 0.00 63 1014.9
20260504044504 45 0 0.0 0.0 0.00 0.00 0.00 62 1014.9
20260504044003 46 0 0.0 0.0 0.00 0.00 0.00 61 1015.0
20260504043503 46 0 0.0 0.0 0.00 0.00 0.00 58 1014.9
20260504043003 46 0 0.0 0.0 0.00 0.00 0.00 58 1014.8
20260504042503 46 0 0.0 0.0 0.00 0.00 0.00 59 1014.8
20260504042003 46 0 0.0 0.0 0.00 0.00 0.00 62 1014.8
20260504041504 46 0 0.0 0.0 0.00 0.00 0.00 62 1014.8
20260504041003 46 0 0.0 0.0 0.00 0.00 0.00 60 1014.8
20260504040503 46 0 0.0 0.0 0.00 0.00 0.00 58 1014.7
20260504040004 46 0 0.0 0.0 0.00 0.00 0.00 57 1014.6
20260504035503 46 0 0.0 0.0 0.00 0.00 0.00 56 1014.6
20260504035003 46 0 0.0 0.0 0.00 0.00 0.00 58 1014.6
20260504034504 46 0 0.0 0.0 0.00 0.00 0.00 60 1014.6
20260504034003 46 0 0.0 0.0 0.00 0.00 0.00 59 1014.6
20260504033503 46 0 0.0 0.0 0.00 0.00 0.00 59 1014.7
20260504033003 46 0 0.0 0.0 0.00 0.00 0.00 61 1014.7
20260504032503 46 0 0.0 0.0 0.00 0.00 0.00 61 1014.8
20260504032003 46 0 0.0 0.0 0.00 0.00 0.00 60 1014.8
20260504031503 47 0 0.0 0.0 0.00 0.00 0.00 58 1014.6
20260504031217 47 0 0.0 0.0 0.00 0.00 0.00 58 1014.6
20260504030504 47 0 0.0 0.0 0.00 0.00 0.00 57 1014.5
20260504030003 47 0 0.0 0.0 0.00 0.00 0.00 58 1014.5
20260504025503 47 0 0.0 0.0 0.00 0.00 0.00 57 1014.5
20260504025003 47 0 0.0 0.0 0.00 0.00 0.00 57 1014.5
20260504024718 48 0 0.0 0.0 0.00 0.00 0.00 56 1014.5
20260504024217 48 0 0.0 0.0 0.00 0.00 0.00 56 1014.5
20260504023503 48 0 0.0 0.0 0.00 0.00 0.00 55 1014.5
20260504023004 48 0 0.0 0.0 0.00 0.00 0.00 54 1014.5
20260504022503 49 0 0.0 0.0 0.00 0.00 0.00 54 1014.5
20260504022003 49 0 0.0 0.0 0.00 0.00 0.00 54 1014.4
20260504021718 49 0 0.0 0.0 0.00 0.00 0.00 54 1014.4
20260504021003 50 0 0.0 0.0 0.00 0.00 0.00 54 1014.4
20260504020718 50 0 0.0 0.0 0.00 0.00 0.00 53 1014.4
20260504020004 50 0 0.0 0.0 0.00 0.00 0.00 49 1014.3
20260504015503 50 0 0.0 0.0 0.00 0.00 0.00 48 1014.2
20260504015003 50 0 0.0 0.0 0.00 0.00 0.00 50 1014.3
20260504014503 50 0 0.0 0.0 0.00 0.00 0.00 51 1014.3
20260504014003 51 0 0.0 0.0 0.00 0.00 0.00 50 1014.2
20260504013503 51 0 0.0 0.0 0.00 0.00 0.00 49 1014.2
20260504013003 51 0 0.0 0.0 0.00 0.00 0.00 47 1014.2
20260504012503 52 0 0.0 0.0 0.00 0.00 0.00 46 1014.1
20260504012003 52 0 0.0 0.0 0.00 0.00 0.00 46 1014.1
20260504011503 52 0 0.0 0.0 0.00 0.00 0.00 47 1014.0
20260504011003 53 0 0.0 0.0 0.00 0.00 0.00 44 1014.0
20260504010503 53 0 0.0 0.0 0.00 0.00 0.00 43 1014.0
20260504010003 53 0 0.0 0.0 0.00 0.00 0.00 43 1013.9
20260504005503 54 0 0.0 0.0 0.00 0.00 0.00 42 1013.9
20260504005004 54 0 0.0 0.0 0.00 0.00 0.00 41 1013.9
20260504004504 54 0 0.0 0.0 0.00 0.00 0.00 40 1013.9
20260504004003 54 269 0.0 1.0 0.00 0.00 0.00 39 1013.8